1514278800.62,37801,9.63,73114.0,2.47,-31.51,-31.91,0,*7D
1514278801.85,37802,9.69,73112.5,2.47,-31.45,-31.67,0,*72
1514278803.09,37803,9.63,73122.5,2.45,-31.51,-31.73,0,*71
1514278804.34,37804,9.63,73120.0,2.47,-31.29,-31.61,0,*78
1514278805.6,37805,9.63,73128.3,2.45,-31.51,-32.07,0,*77
1514278806.87,37806,9.63,73120.5,2.47,-31.51,-31.91,0,*7A
1514278808.09,37807,9.63,73122.8,2.47,-31.33,-31.67,0,*76
1514278809.34,37808,9.63,73122.8,2.47,-31.45,-31.73,0,*7D
1514278810.57,37809,9.63,73118.5,2.47,-31.45,-31.67,0,*79
1514278811.85,37810,9.63,73116.3,2.47,-31.11,-31.51,0,*75
1514278813.08,37811,9.63,73124.8,2.47,-30.83,-31.17,0,*7C
1514278814.31,37812,9.63,73124.0,2.47,-30.67,-31.01,0,*72
1514278815.56,37813,9.63,73128.0,2.47,-30.77,-31.17,0,*75
1514278816.81,37814,9.63,73128.0,2.47,-30.61,-31.01,0,*72
1514278818.03,37815,9.63,73134.3,2.49,-30.73,-31.05,0,*7A
1514278819.31,37816,9.63,73132.3,2.51,-30.73,-30.95,0,*78
1514278820.56,37817,9.63,73132.0,2.51,-30.45,-30.77,0,*70
1514278821.81,37818,9.63,73134.8,2.51,-31.05,-31.39,0,*71
1514278823.09,37819,9.63,73138.3,2.51,-31.61,-31.95,0,*74
1514278824.35,37820,9.63,73146.8,2.51,-31.45,-31.95,0,*78
1514278825.6,37821,9.63,73154.8,2.51,-31.95,-32.35,0,*7D
1514278826.83,37822,9.63,73154.3,2.49,-31.61,-32.01,0,*7B
1514278828.08,37823,9.63,73154.5,2.49,-30.73,-31.11,0,*7A
1514278829.36,37824,9.63,73148.8,2.51,-30.89,-31.23,0,*70
1514278830.59,37825,9.69,73154.0,2.53,-31.05,-31.39,0,*7D
1514278831.81,37826,9.63,73150.3,2.53,-31.17,-31.39,0,*7D
1514278833.04,37827,9.63,73146.0,2.53,-31.01,-31.23,0,*70
1514278834.27,37828,9.63,73130.8,2.53,-30.89,-31.05,0,*7A
1514278835.52,37829,9.63,73108.8,2.53,-30.89,-31.23,0,*7F
1514278836.75,37830,9.63,73104.8,2.53,-31.17,-31.51,0,*74
1514278837.98,37831,9.63,73106.0,2.53,-31.01,-31.23,0,*77
1514278839.2,37832,9.69,73120.5,2.57,-31.17,-31.57,0,*74
1514278840.42,37833,9.63,73128.3,2.57,-31.67,-31.91,0,*78
1514278841.65,37834,9.69,73132.8,2.53,-31.95,-32.39,0,*77
1514278842.86,37835,9.69,73142.0,2.53,-32.39,-32.69,0,*76
1514278844.11,37836,9.63,73144.0,2.53,-32.07,-32.45,0,*76
1514278845.39,37837,9.63,73148.0,2.51,-32.19,-32.45,0,*7A
1514278846.66,37838,9.63,73152.8,2.51,-32.29,-32.63,0,*72
1514278847.89,37839,9.63,73154.8,2.49,-31.85,-32.13,0,*78
1514278849.08,37840,9.63,73148.3,2.49,-31.67,-32.01,0,*79
1514278850.3,37841,9.63,73140.3,2.51,-31.67,-32.01,0,*71
1514278851.56,37842,9.63,73142.5,2.49,-31.95,-32.19,0,*7F
1514278852.81,37843,9.63,73146.8,2.51,-31.67,-32.19,0,*7A
1514278854.02,37844,9.63,73144.3,2.49,-32.01,-32.35,0,*79
1514278855.27,37845,9.63,73144.0,2.49,-31.85,-32.29,0,*7A
1514278856.53,37846,9.63,73146.3,2.49,-31.61,-31.95,0,*77
1514278857.78,37847,9.63,73136.8,2.49,-31.57,-31.85,0,*72
1514278859.03,37848,9.63,73132.0,2.51,-31.29,-31.57,0,*72
1514278860.28,37849,9.63,73124.0,2.51,-31.29,-31.57,0,*73
1514278861.5,37850,9.69,73124.0,2.49,-31.29,-31.57,0,*72
1514278862.7,37851,9.63,73124.5,2.49,-31.79,-32.01,0,*76
1514278863.94,37852,9.63,73122.3,2.49,-32.01,-32.19,0,*70
1514278865.15,37853,9.63,73118.0,2.49,-32.13,-32.51,0,*7E
1514278866.37,37854,9.63,73118.0,2.49,-32.45,-32.69,0,*71
1514278867.57,37855,9.69,73124.8,2.49,-32.35,-32.69,0,*77
1514278868.85,37856,9.69,73132.3,2.47,-33.09,-33.31,0,*78
1514278870.08,37857,9.63,73132.3,2.45,-32.51,-32.79,0,*7A
1514278871.31,37858,9.63,73136.8,2.45,-32.75,-33.15,0,*78
1514278872.54,37859,9.63,73128.0,2.45,-32.79,-33.15,0,*75
1514278873.75,37860,9.63,73130.8,2.45,-32.01,-32.35,0,*73
1514278875.0,37861,9.69,73130.0,2.45,-31.85,-32.19,0,*73
1514278876.21,37862,9.69,73138.5,2.45,-32.23,-32.51,0,*73
1514278877.46,37863,9.63,73140.8,2.43,-32.13,-32.45,0,*72
1514278878.73,37864,9.69,73136.0,2.43,-32.07,-32.39,0,*7B
1514278879.98,37865,9.69,73138.0,2.43,-31.91,-32.23,0,*7D
1514278881.27,37866,9.63,73134.3,2.43,-31.73,-32.07,0,*74
1514278882.5,37867,9.69,73138.5,2.45,-31.67,-32.19,0,*79
1514278883.76,37868,9.63,73134.8,2.45,-31.73,-32.07,0,*7C
1514278885.01,37869,9.63,73130.0,2.45,-31.73,-32.07,0,*7D
1514278886.27,37870,9.63,73118.8,2.43,-31.67,-31.95,0,*7E
1514278887.52,37871,9.63,73104.3,2.45,-31.51,-31.91,0,*78
1514278888.78,37872,9.69,73102.3,2.45,-31.61,-31.91,0,*78
1514278890.0,37873,9.69,73110.8,2.45,-31.45,-31.85,0,*7A
1514278891.26,37874,9.63,73126.5,2.43,-31.33,-31.57,0,*75
1514278892.46,37875,9.63,73130.0,2.45,-31.01,-31.45,0,*70
1514278893.66,37876,9.63,73122.3,2.45,-31.29,-31.67,0,*79
1514278894.89,37877,9.63,73118.8,2.43,-31.33,-31.67,0,*75
1514278896.09,37878,9.69,73100.3,2.45,-31.45,-31.67,0,*7D
1514278897.34,37879,9.69,73094.0,2.45,-31.51,-31.85,0,*75
1514278898.54,37880,9.69,73104.0,2.45,-32.01,-32.35,0,*7D
1514278899.77,37881,9.69,73108.5,2.49,-31.85,-32.13,0,*7B
1514278901.0,37882,9.63,73092.3,2.45,-31.61,-32.01,0,*7D
1514278902.26,37883,9.63,73088.0,2.45,-31.73,-32.19,0,*76
1514278903.52,37884,9.69,73102.5,2.45,-31.85,-32.19,0,*78
1514278904.75,37885,9.63,73096.3,2.45,-32.39,-32.75,0,*77
1514278906.0,37886,9.69,73096.3,2.45,-32.97,-33.49,0,*7E
1514278907.23,37887,9.63,73096.5,2.41,-32.79,-33.21,0,*75
1514278908.48,37888,9.69,73114.8,2.41,-32.29,-32.63,0,*78
1514278909.71,37889,9.69,73116.0,2.41,-32.23,-32.45,0,*77
1514278910.96,37890,9.69,73120.0,2.43,-32.63,-33.03,0,*7A
1514278912.17,37891,9.69,73112.8,2.41,-32.57,-33.03,0,*7E
1514278913.4,37892,9.69,73124.0,2.39,-32.69,-32.91,0,*75
1514278914.65,37893,9.69,73138.0,2.39,-32.35,-32.63,0,*70
1514278915.86,37894,9.63,73132.0,2.37,-32.23,-32.51,0,*7F
1514278917.11,37895,9.63,73134.5,2.39,-31.79,-32.19,0,*70
1514278918.33,37896,9.69,73132.3,2.39,-32.13,-32.35,0,*72
1514278919.57,37897,9.63,73130.8,2.37,-32.19,-32.39,0,*7B
1514278920.8,37898,9.69,73112.8,2.37,-31.11,-31.33,0,*76
1514278922.0,37899,9.69,73118.8,2.37,-31.01,-31.33,0,*76
1514278923.26,37900,9.69,73128.5,2.39,-31.79,-32.19,0,*7D
1514278924.51,37901,9.63,73132.8,2.39,-31.61,-32.01,0,*7C
1514278925.76,37902,9.69,73136.5,2.39,-31.57,-31.79,0,*76
1514278927.04,37903,9.69,73130.3,2.39,-31.11,-31.39,0,*71
1514278928.29,37904,9.63,73122.0,2.39,-31.05,-31.39,0,*73
1514278929.56,37905,9.63,73118.5,2.39,-31.39,-31.73,0,*73
1514278930.81,37906,9.63,73120.8,2.39,-31.73,-32.01,0,*78
1514278932.07,37907,9.63,73138.3,2.41,-30.89,-31.23,0,*71
1514278933.3,37908,9.63,73130.8,2.41,-31.33,-31.51,0,*7B
1514278934.56,37909,9.69,73122.0,2.43,-31.01,-31.23,0,*7C
1514278935.78,37910,9.63,73122.3,2.41,-31.39,-31.79,0,*72
1514278936.99,37911,9.69,73128.8,2.41,-31.17,-31.33,0,*71
1514278938.24,37912,9.69,73116.8,2.43,-31.05,-31.51,0,*77
1514278939.5,37913,9.69,73116.0,2.43,-31.17,-31.39,0,*7B
1514278940.79,37914,9.69,73126.0,2.43,-30.89,-31.23,0,*71
1514278942.04,37915,9.63,73122.8,2.45,-31.91,-32.19,0,*74
1514278943.3,37916,9.63,73106.0,2.45,-32.75,-33.09,0,*7E
1514278944.58,37917,9.69,73112.0,2.43,-32.29,-32.79,0,*76
1514278945.81,37918,9.63,73124.0,2.41,-32.57,-32.97,0,*72
1514278947.06,37919,9.63,73124.3,2.43,-32.97,-33.37,0,*76
1514278948.3,37920,9.69,73134.0,2.41,-32.79,-33.21,0,*79
1514278949.56,37921,9.69,73128.3,2.41,-32.79,-33.31,0,*79
1514278950.84,37922,9.69,73140.8,2.39,-33.09,-33.43,0,*76
1514278952.1,37923,9.63,73140.8,2.37,-32.75,-33.09,0,*7D
1514278953.33,37924,9.69,73142.5,2.37,-33.15,-33.43,0,*73
1514278954.55,37925,9.69,73152.0,2.35,-32.91,-33.31,0,*78
1514278955.8,37926,9.69,73146.8,2.33,-32.57,-32.97,0,*7A
1514278957.02,37927,9.69,73142.8,2.35,-31.91,-32.35,0,*7C
1514278958.31,37928,9.69,73144.0,2.33,-32.07,-32.45,0,*7E
1514278959.49,37929,9.63,73152.0,2.35,-32.35,-32.57,0,*7B
1514278960.72,37930,9.63,73144.5,2.35,-31.67,-31.91,0,*7E
1514278961.97,37931,9.69,73158.3,2.35,-31.11,-31.51,0,*72
1514278963.19,37932,9.69,73146.3,2.35,-31.51,-31.79,0,*7F
1514278964.42,37933,9.69,73136.8,2.35,-31.45,-31.85,0,*78
1514278965.65,37934,9.69,73138.3,2.35,-31.67,-32.07,0,*76
1514278966.9,37935,9.63,73134.5,2.35,-31.61,-31.91,0,*7D
1514278968.18,37936,9.69,73142.5,2.33,-32.07,-32.29,0,*7B
1514278969.38,37937,9.69,73142.5,2.35,-32.01,-32.35,0,*77
1514278970.64,37938,9.69,73130.8,2.35,-31.61,-31.91,0,*70
1514278971.86,37939,9.69,73142.5,2.37,-31.51,-31.79,0,*76
1514278973.06,37940,9.69,73136.5,2.37,-31.33,-31.67,0,*73
1514278974.3,37941,9.69,73134.3,2.37,-31.29,-31.61,0,*7F
1514278975.55,37942,9.69,73134.5,2.39,-31.29,-31.61,0,*72
1514278976.78,37943,9.69,73130.5,2.37,-31.29,-31.61,0,*7D
1514278978.06,37944,9.63,73144.8,2.39,-31.85,-32.29,0,*7D
1514278979.29,37945,9.69,73126.3,2.37,-31.33,-31.61,0,*70
1514278980.52,37946,9.69,73136.8,2.39,-31.45,-31.79,0,*75
1514278981.72,37947,9.69,73124.0,2.37,-31.45,-31.79,0,*7A
1514278982.95,37948,9.69,73128.3,2.39,-31.45,-31.79,0,*7B
1514278984.18,37949,9.69,73134.5,2.39,-31.45,-31.79,0,*7A
1514278985.41,37950,9.63,73120.5,2.37,-31.29,-31.57,0,*7A
1514278986.64,37951,9.69,73122.5,2.41,-31.17,-31.51,0,*71
1514278987.89,37952,9.69,73120.8,2.41,-31.39,-31.73,0,*7E
1514278989.12,37953,9.69,73122.0,2.41,-31.67,-32.07,0,*74
1514278990.38,37954,9.69,73120.3,2.41,-32.45,-32.79,0,*79
1514278991.61,37955,9.69,73130.8,2.41,-32.75,-33.15,0,*70
1514278992.84,37956,9.69,73128.3,2.41,-32.39,-32.63,0,*7B
1514278994.12,37957,9.63,73134.5,2.39,-32.45,-32.75,0,*79
1514278995.37,37958,9.63,73132.5,2.39,-31.79,-32.19,0,*70
1514278996.6,37959,9.69,73140.0,2.37,-31.51,-31.79,0,*70
1514278997.85,37960,9.63,73142.8,2.39,-30.77,-31.05,0,*7A
1514278999.12,37961,9.69,73142.0,2.39,-30.39,-30.55,0,*75
1514279000.4,37962,9.69,73148.3,2.43,-30.55,-30.89,0,*70
1514279001.66,37963,9.69,73148.0,2.43,-30.73,-31.05,0,*70
1514279002.91,37964,9.69,73138.0,2.43,-30.73,-31.01,0,*73
1514279004.15,37965,9.69,73136.3,2.43,-30.83,-31.05,0,*79
1514279005.37,37966,9.69,73134.0,2.45,-30.39,-30.67,0,*78
1514279006.62,37967,9.63,73132.3,2.45,-30.61,-30.95,0,*79
1514279007.85,37968,9.69,73128.8,2.47,-30.45,-30.67,0,*7F
1514279009.1,37969,9.69,73118.5,2.47,-30.45,-30.77,0,*7F
1514279010.3,37970,9.69,73114.5,2.49,-31.05,-31.29,0,*76
1514279011.5,37971,9.69,73120.8,2.49,-31.05,-31.29,0,*77
1514279012.78,37972,9.69,73116.0,2.51,-31.23,-31.57,0,*70
1514279013.98,37973,9.69,73108.5,2.49,-31.45,-31.67,0,*7B
1514279015.21,37974,9.69,73108.8,2.49,-31.61,-32.01,0,*79
1514279016.44,37975,9.69,73110.0,2.49,-31.45,-31.85,0,*71
1514279017.7,37976,9.69,73118.5,2.49,-31.85,-32.19,0,*78
1514279018.9,37977,9.69,73108.8,2.49,-31.79,-32.13,0,*70
1514279020.13,37978,9.69,73118.5,2.49,-31.61,-32.13,0,*76
1514279021.36,37979,9.69,73112.5,2.49,-31.61,-32.01,0,*74
1514279022.62,37980,9.69,73108.3,2.49,-31.61,-31.95,0,*7C
1514279023.84,37981,9.69,73116.8,2.49,-31.39,-31.79,0,*72
1514279025.1,37982,9.69,73122.8,2.49,-31.61,-31.95,0,*7E
1514279026.3,37983,9.69,73116.3,2.49,-31.79,-32.13,0,*7B
1514279027.55,37984,9.69,73122.3,2.49,-31.57,-31.85,0,*7C
1514279028.78,37985,9.69,73124.5,2.49,-31.57,-32.01,0,*72
1514279030.01,37986,9.63,73102.8,2.49,-31.61,-32.01,0,*74
1514279031.21,37987,9.69,73094.0,2.49,-31.67,-32.13,0,*70
1514279032.47,37988,9.69,73118.5,2.49,-31.85,-32.19,0,*79
1514279033.72,37989,9.69,73108.8,2.49,-32.19,-32.45,0,*77
1514279034.98,37990,9.69,73122.8,2.49,-31.95,-32.45,0,*78
1514279036.2,37991,9.69,73116.5,2.49,-32.19,-32.35,0,*79
1514279037.43,37992,9.69,73128.8,2.47,-32.01,-32.23,0,*7A
1514279038.68,37993,9.69,73126.3,2.47,-31.91,-32.23,0,*71
1514279039.96,37994,9.69,73118.8,2.47,-31.85,-32.07,0,*75
1514279041.21,37995,9.69,73108.0,2.47,-31.67,-32.07,0,*78
1514279042.43,37996,9.69,73106.3,2.47,-31.67,-32.01,0,*7D
1514279043.65,37997,9.69,73116.5,2.47,-32.35,-32.57,0,*7B
1514279044.85,37998,9.69,73132.3,2.45,-32.35,-32.69,0,*7B
1514279046.04,37999,9.69,73124.0,2.45,-32.23,-32.57,0,*70
1514279047.27,38000,9.69,73120.8,2.45,-32.07,-32.23,0,*73
1514279048.46,38001,9.69,73130.5,2.45,-32.35,-32.57,0,*70
1514279049.72,38002,9.69,73122.5,2.45,-31.73,-32.19,0,*78
1514279050.94,38003,9.69,73112.0,2.45,-31.91,-32.23,0,*7C
1514279052.2,38004,9.69,73120.0,2.47,-32.19,-32.51,0,*7F
1514279053.41,38005,9.69,73124.3,2.45,-32.39,-32.69,0,*75
1514279054.6,38006,9.69,73124.8,2.45,-32.35,-32.57,0,*77
1514279055.82,38007,9.69,73130.0,2.45,-32.19,-32.57,0,*78
1514279057.05,38008,9.69,73116.8,2.45,-32.19,-32.39,0,*7F
1514279058.3,38009,9.69,73106.8,2.45,-31.61,-31.73,0,*7F
1514279059.57,38010,9.69,73112.3,2.47,-31.61,-31.73,0,*75
1514279060.78,38011,9.69,73122.0,2.45,-32.39,-32.69,0,*70
1514279062.03,38012,9.69,73140.5,2.45,-31.51,-31.91,0,*7A
1514279063.29,38013,9.69,73142.8,2.45,-31.73,-32.19,0,*78
1514279064.52,38014,9.69,73144.5,2.45,-31.45,-31.61,0,*76
1514279065.72,38015,9.69,73142.3,2.45,-31.33,-31.67,0,*70
1514279066.94,38016,9.69,73144.3,2.47,-31.01,-31.17,0,*77
1514279068.19,38017,9.69,73140.8,2.47,-30.39,-30.45,0,*7A
1514279069.43,38018,9.69,73142.0,2.47,-30.05,-30.23,0,*7A
1514279070.68,38019,9.69,73134.8,2.51,-30.73,-31.05,0,*78
1514279071.93,38020,9.69,73136.0,2.51,-30.73,-31.05,0,*72
1514279073.18,38021,9.69,73128.3,2.51,-30.73,-31.05,0,*73
1514279074.43,38022,9.69,73118.8,2.53,-30.55,-30.89,0,*73
1514279075.67,38023,9.69,73106.8,2.53,-30.51,-30.83,0,*7C
1514279076.9,38024,9.69,73106.0,2.53,-30.67,-30.89,0,*74
1514279078.16,38025,9.69,73114.3,2.53,-30.51,-30.89,0,*70
1514279079.41,38026,9.69,73118.8,2.57,-30.51,-30.77,0,*76
1514279080.64,38027,9.69,73122.5,2.57,-30.51,-30.83,0,*7C
1514279081.87,38028,9.69,73132.5,2.53,-31.01,-31.23,0,*78
1514279083.1,38029,9.69,73132.3,2.57,-30.95,-31.17,0,*76
1514279084.33,38030,9.69,73134.8,2.57,-31.11,-31.45,0,*74
1514279085.55,38031,9.69,73132.0,2.57,-31.33,-31.73,0,*70
1514279086.78,38032,9.69,73134.8,2.57,-31.45,-31.85,0,*7B
1514279088.0,38033,9.69,73148.3,2.57,-31.29,-31.73,0,*79
1514279089.25,38034,9.69,73148.0,2.57,-31.85,-32.19,0,*77
1514279090.48,38035,9.69,73148.0,2.57,-31.91,-32.23,0,*7A
1514279091.68,38036,9.69,73154.8,2.57,-31.29,-31.45,0,*79
1514279092.9,38037,9.69,73156.0,2.57,-31.33,-31.57,0,*70
1514279094.13,38038,9.69,73140.8,2.57,-31.11,-31.33,0,*7D
1514279095.38,38039,9.69,73136.5,2.57,-30.77,-30.95,0,*70
1514279096.6,38040,9.69,73128.5,2.57,-30.67,-30.95,0,*7F
1514279097.83,38041,9.69,73134.5,2.59,-31.01,-31.29,0,*77
1514279099.07,38042,9.69,73132.8,2.61,-30.77,-30.95,0,*79
1514279100.32,38043,9.69,73136.0,2.59,-31.11,-31.33,0,*7F
1514279101.58,38044,9.69,73124.5,2.59,-31.17,-31.51,0,*7A
1514279102.82,38045,9.69,73126.8,2.59,-31.33,-31.57,0,*7B
1514279104.05,38046,9.69,73120.8,2.61,-31.61,-32.13,0,*77
1514279105.27,38047,9.69,73118.8,2.59,-32.23,-32.51,0,*7E
1514279106.5,38048,9.69,73118.5,2.59,-32.01,-32.23,0,*74
1514279107.75,38049,9.69,73116.3,2.59,-31.67,-32.07,0,*70
1514279109.01,38050,9.69,73118.3,2.59,-31.45,-31.85,0,*71
1514279110.24,38051,9.69,73116.0,2.57,-31.11,-31.45,0,*73
1514279111.46,38052,9.69,73112.8,2.59,-31.29,-31.67,0,*75
1514279112.71,38053,9.69,73112.0,2.59,-31.29,-31.51,0,*71
1514279113.94,38054,9.69,73106.8,2.59,-31.01,-31.17,0,*7E
1514279115.16,38055,9.69,73112.5,2.59,-31.01,-31.29,0,*72
1514279116.4,38056,9.69,73114.0,2.61,-31.23,-31.45,0,*70
1514279117.64,38057,9.69,73126.8,2.59,-30.61,-31.01,0,*7D
1514279118.89,38058,9.69,73124.0,2.61,-30.77,-30.95,0,*72
1514279120.13,38059,9.69,73120.0,2.61,-30.73,-30.95,0,*77
1514279121.38,38060,9.69,73114.5,2.61,-30.39,-30.61,0,*78
1514279122.66,38061,9.69,73116.0,2.63,-30.77,-31.11,0,*77
1514279123.93,38062,9.69,73114.0,2.63,-30.89,-31.11,0,*75
1514279125.2,38063,9.69,73120.0,2.63,-30.89,-31.11,0,*74
1514279126.45,38064,9.69,73122.8,2.63,-31.29,-31.51,0,*7C
1514279127.73,38065,9.69,73120.8,2.63,-31.23,-31.51,0,*77
1514279129.01,38066,9.69,73114.5,2.63,-31.11,-31.51,0,*75
1514279130.21,38067,9.69,73118.8,2.65,-31.01,-31.17,0,*71
1514279131.48,38068,9.69,73120.5,2.63,-30.77,-31.11,0,*7E
1514279132.68,38069,9.69,73112.5,2.65,-31.05,-31.33,0,*7D
1514279133.92,38070,9.69,73116.0,2.63,-31.85,-32.13,0,*7A
1514279135.2,38071,9.69,73116.0,2.63,-31.95,-32.19,0,*70
1514279136.45,38072,9.69,73120.5,2.63,-32.19,-32.51,0,*78
1514279137.7,38073,9.69,73116.3,2.63,-31.45,-31.85,0,*79
1514279138.98,38074,9.69,73110.8,2.63,-31.61,-31.95,0,*79
1514279140.23,38075,9.69,73104.8,2.65,-31.39,-31.73,0,*7B
1514279141.48,38076,9.69,73106.0,2.63,-31.45,-31.85,0,*7C
1514279142.72,38077,9.69,73114.0,2.63,-31.39,-31.67,0,*7A
1514279143.96,38078,9.69,73112.8,2.63,-31.39,-31.67,0,*75
1514279145.24,38079,9.69,73120.0,2.63,-31.61,-31.95,0,*74
1514279146.51,38080,9.69,73118.5,2.63,-31.61,-31.95,0,*72
1514279147.77,38081,9.69,73118.0,2.63,-31.79,-31.95,0,*7A
1514279149.01,38082,9.69,73120.5,2.63,-31.29,-31.61,0,*77
1514279150.29,38083,9.69,73128.0,2.63,-30.73,-31.11,0,*7F
1514279151.56,38084,9.69,73124.8,2.63,-30.89,-31.23,0,*7C
1514279152.81,38085,9.63,73118.5,2.63,-30.61,-31.05,0,*7F
1514279154.08,38086,9.69,73122.5,2.63,-30.95,-31.23,0,*73
1514279155.29,38087,9.69,73132.8,2.65,-30.83,-31.05,0,*77
1514279156.49,38088,9.69,73122.5,2.65,-31.05,-31.33,0,*72
1514279157.71,38089,9.69,73102.0,2.65,-31.05,-31.39,0,*79
1514279158.91,38090,9.69,73106.5,2.65,-31.05,-31.45,0,*7A
1514279160.14,38091,9.69,73126.3,2.65,-31.17,-31.39,0,*73
1514279161.37,38092,9.69,73136.3,2.65,-31.57,-31.79,0,*70
1514279162.57,38093,9.69,73088.3,2.65,-31.17,-31.45,0,*7A
1514279163.8,38094,9.69,73116.5,2.65,-31.45,-31.91,0,*73
1514279165.04,38095,9.69,73106.3,2.65,-31.45,-31.91,0,*72
1514279166.31,38096,9.69,73092.5,2.63,-31.61,-31.95,0,*75
1514279167.57,38097,9.69,73076.3,2.65,-31.61,-32.07,0,*7A
1514279168.82,38098,9.69,73120.0,2.65,-31.57,-31.91,0,*7C
1514279170.1,38099,9.63,73128.3,2.63,-31.85,-32.19,0,*77
1514279171.3,38100,9.69,73118.5,2.65,-31.29,-31.67,0,*7C
1514279172.5,38101,9.69,73128.5,2.65,-31.45,-31.79,0,*78
1514279173.78,38102,9.69,73136.0,2.63,-31.23,-31.61,0,*74
1514279175.04,38103,9.69,73136.8,2.63,-31.23,-31.45,0,*73
1514279176.32,38104,9.69,73144.8,2.63,-31.23,-31.51,0,*71
1514279177.57,38105,9.69,73130.5,2.65,-31.23,-31.61,0,*75
1514279178.85,38106,9.69,73126.5,2.63,-31.23,-31.39,0,*7D
1514279180.09,38107,9.69,73116.3,2.65,-30.67,-30.89,0,*71
1514279181.29,38108,9.63,73126.8,2.65,-30.83,-31.05,0,*71
1514279182.54,38109,9.69,73122.0,2.67,-31.57,-32.01,0,*7D
1514279183.79,38110,9.69,73122.0,2.67,-32.57,-32.97,0,*79
1514279185.02,38111,9.69,73134.8,2.65,-32.63,-33.03,0,*71
1514279186.24,38112,9.69,73142.5,2.63,-31.79,-32.01,0,*7F
1514279187.46,38113,9.69,73152.3,2.63,-32.13,-32.51,0,*74
1514279188.68,38114,9.63,73168.3,2.61,-32.35,-32.85,0,*7C
1514279189.94,38115,9.63,73156.3,2.59,-32.07,-32.35,0,*7C
1514279191.14,38116,9.69,73148.3,2.61,-32.01,-32.23,0,*75
1514279192.41,38117,9.69,73134.3,2.59,-31.51,-31.91,0,*73
1514279193.67,38118,9.69,73116.8,2.61,-31.61,-31.95,0,*70
1514279194.92,38119,9.69,73116.3,2.61,-31.61,-31.95,0,*71
1514279196.18,38120,9.69,73118.5,2.61,-31.85,-32.19,0,*76
1514279197.45,38121,9.69,73108.0,2.59,-31.57,-31.85,0,*75
1514279198.7,38122,9.69,73116.0,2.61,-31.95,-32.45,0,*7C
1514279199.95,38123,9.69,73116.0,2.59,-32.51,-32.97,0,*72
1514279201.19,38124,9.69,73124.0,2.59,-32.35,-32.63,0,*7C
1514279202.45,38125,9.63,73116.5,2.61,-31.95,-32.19,0,*72
1514279203.68,38126,9.69,73126.0,2.59,-32.57,-32.91,0,*77
1514279204.91,38127,9.69,73122.8,2.59,-32.57,-32.91,0,*76
1514279206.13,38128,9.69,73130.0,2.57,-32.07,-32.23,0,*7B
1514279207.33,38129,9.69,73112.8,2.57,-31.67,-32.01,0,*7F
1514279208.58,38130,9.69,73116.3,2.57,-31.57,-31.85,0,*7B
1514279209.81,38131,9.69,73108.8,2.59,-32.01,-32.23,0,*7B
1514279211.09,38132,9.69,73130.0,2.59,-31.91,-32.19,0,*7B
1514279212.29,38133,9.69,73140.3,2.53,-31.79,-32.23,0,*7F
1514279213.52,38134,9.69,73136.3,2.57,-31.79,-32.07,0,*7A
1514279214.74,38135,9.69,73134.3,2.57,-31.67,-32.07,0,*74
1514279215.94,38136,9.69,73118.8,2.53,-31.79,-32.13,0,*79
1514279217.17,38137,9.63,73088.3,2.53,-31.57,-32.01,0,*77
1514279218.43,38138,9.69,73090.5,2.53,-31.61,-31.95,0,*73
1514279219.68,38139,9.69,73092.5,2.53,-31.95,-32.29,0,*7D
1514279220.87,38140,9.69,73100.8,2.53,-32.23,-32.57,0,*74
1514279222.1,38141,9.69,73104.8,2.53,-32.39,-32.79,0,*72
1514279223.32,38142,9.69,73104.3,2.53,-32.29,-32.57,0,*7C
1514279224.55,38143,9.69,73106.8,2.53,-31.95,-32.23,0,*7A
1514279225.81,38144,9.69,73110.0,2.53,-31.73,-32.07,0,*73
1514279227.09,38145,9.69,73116.3,2.51,-31.61,-31.95,0,*7B
1514279228.31,38146,9.69,73128.3,2.51,-31.05,-31.29,0,*7D
1514279229.54,38147,9.69,73124.5,2.53,-30.73,-31.05,0,*70
1514279230.79,38148,9.69,73116.8,2.53,-30.51,-30.73,0,*7F
1514279232.02,38149,9.69,73116.3,2.57,-30.95,-31.29,0,*7C
1514279233.25,38150,9.63,73118.5,2.57,-31.11,-31.45,0,*73
1514279234.48,38151,9.63,73128.5,2.57,-31.29,-31.51,0,*7C
1514279235.73,38152,9.63,73122.0,2.59,-30.77,-31.01,0,*7E
1514279236.98,38153,9.63,73098.3,2.61,-30.73,-30.95,0,*7C
1514279238.23,38154,9.69,73122.3,2.59,-30.95,-31.17,0,*73
1514279239.48,38155,9.69,73134.5,2.61,-30.95,-31.11,0,*7F
1514279240.76,38156,9.69,73066.8,2.63,-31.11,-31.39,0,*79
1514279242.01,38157,9.69,73098.5,2.59,-31.45,-31.73,0,*7E
1514279243.23,38158,9.69,73088.8,2.61,-31.39,-31.79,0,*7B
1514279244.5,38159,9.69,73122.8,2.59,-32.97,-33.27,0,*7F
1514279245.78,38160,9.69,73096.0,2.59,-31.85,-32.19,0,*79
1514279247.01,38161,9.69,73096.0,2.59,-32.23,-32.51,0,*7B
1514279248.26,38162,9.69,73066.5,2.59,-31.73,-32.01,0,*7B
1514279249.51,38163,9.69,73070.3,2.59,-32.91,-33.27,0,*70
1514279250.77,38164,9.63,73092.5,2.57,-32.75,-33.09,0,*7F
1514279251.97,38165,9.69,73116.5,2.53,-33.03,-33.21,0,*70
1514279253.2,38166,9.69,73120.0,2.57,-32.19,-32.39,0,*75
1514279254.45,38167,9.63,73108.8,2.53,-31.57,-31.91,0,*78
1514279255.68,38168,9.69,73104.0,2.53,-32.57,-32.85,0,*72
1514279256.91,38169,9.69,73110.8,2.53,-32.85,-33.21,0,*73
1514279258.14,38170,9.69,73118.8,2.49,-32.85,-33.21,0,*70
1514279259.39,38171,9.69,73110.5,2.51,-32.75,-33.03,0,*77
1514279260.62,38172,9.69,73104.3,2.49,-32.75,-33.21,0,*7D
1514279261.87,38173,9.69,73108.5,2.51,-32.85,-33.21,0,*7A
1514279263.12,38174,9.69,73112.0,2.47,-32.91,-33.27,0,*79
1514279264.38,38175,9.63,73110.0,2.47,-32.69,-33.09,0,*73
1514279265.61,38176,9.63,73104.3,2.45,-32.19,-32.39,0,*77
1514279266.86,38177,9.69,73106.5,2.47,-31.91,-32.35,0,*7B
1514279268.05,38178,9.69,73108.0,2.45,-32.23,-32.57,0,*78
1514279269.28,38179,9.69,73104.0,2.47,-32.51,-32.91,0,*74
1514279270.51,38180,9.69,73118.3,2.45,-32.57,-32.79,0,*70
1514279271.7,38181,9.69,73120.8,2.45,-32.35,-32.57,0,*79
1514279272.96,38182,9.69,73118.5,2.43,-32.57,-32.85,0,*77
1514279274.19,38183,9.69,73124.3,2.41,-32.97,-33.37,0,*70
1514279275.45,38184,9.69,73136.5,2.43,-32.79,-33.21,0,*72
1514279276.71,38185,9.69,73134.5,2.43,-32.63,-33.15,0,*7F
1514279277.95,38186,9.69,73132.0,2.41,-32.57,-32.75,0,*7E
1514279279.17,38187,9.63,73120.8,2.43,-32.23,-32.57,0,*7E
1514279280.4,38188,9.69,73122.5,2.41,-32.57,-32.97,0,*7C
1514279281.65,38189,9.69,73136.5,2.41,-32.45,-32.79,0,*7E
1514279282.91,38190,9.69,73144.5,2.41,-32.07,-32.29,0,*75
1514279284.16,38191,9.63,73142.5,2.41,-31.51,-31.73,0,*78
1514279285.39,38192,9.69,73138.3,2.41,-31.05,-31.39,0,*74
1514279286.65,38193,9.69,73138.0,2.41,-31.23,-31.51,0,*7F
1514279287.91,38194,9.69,73134.0,2.43,-31.57,-31.79,0,*73
1514279289.2,38195,9.69,73140.0,2.43,-31.57,-31.95,0,*70
1514279290.47,38196,9.69,73144.8,2.43,-31.51,-31.91,0,*71
1514279291.74,38197,9.63,73136.0,2.43,-31.95,-32.23,0,*72
1514279292.99,38198,9.69,73136.8,2.43,-32.23,-32.45,0,*73
1514279294.25,38199,9.63,73136.5,2.43,-31.73,-32.13,0,*77
1514279295.5,38200,9.69,73140.8,2.45,-31.61,-31.91,0,*78
1514279296.73,38201,9.69,73140.5,2.45,-31.45,-31.61,0,*70
1514279297.96,38202,9.69,73138.3,2.45,-31.17,-31.61,0,*74
1514279299.21,38203,9.69,73132.0,2.49,-31.23,-31.57,0,*7B
1514279300.47,38204,9.63,73128.5,2.47,-31.29,-31.61,0,*7D
1514279301.75,38205,9.69,73130.3,2.47,-30.51,-30.77,0,*74
1514279303.0,38206,9.69,73128.8,2.47,-30.83,-31.11,0,*79
1514279304.26,38207,9.63,73124.5,2.47,-32.19,-32.51,0,*7E
1514279305.47,38208,9.69,73124.8,2.49,-32.13,-32.51,0,*75
1514279306.72,38209,9.69,73128.3,2.49,-31.11,-31.39,0,*78
1514279307.98,38210,9.63,73134.8,2.49,-30.89,-31.11,0,*7A
1514279309.23,38211,9.69,73134.5,2.49,-30.61,-30.89,0,*7D
1514279310.49,38212,9.69,73132.3,2.51,-30.45,-30.77,0,*70
1514279311.71,38213,9.63,73128.5,2.53,-31.05,-31.39,0,*7D
1514279312.94,38214,9.69,73130.3,2.53,-31.73,-32.13,0,*70